Regional Weather Roundup
Issued by NWS Sioux Falls, SD

Home | Current Version | Previous Version | Graphics & Text | Print | Product List | Glossary Off
Versions: 1 2 3 4 5 6 7 8 9 10 11 12 13 14 15 16 17 18 19 20 21 22 23 24 25 26 27 28 29 30 31 32 33 34 35 36 37 38 39 40 41 42 43 44 45 46 47 48 49 50

000
ASUS43 KFSD 230310
RWRFSD

WEATHER ROUNDUP FOR SE SOUTH DAKOTA/SW MINNESOTA/NW IOWA
NATIONAL WEATHER SERVICE SIOUX FALLS SD
1000 PM CDT WED MAR 22 2017

NOTE: "FAIR" INDICATES FEW OR NO CLOUDS BELOW 12,000 FEET WITH NO
SIGNIFICANT WEATHER AND OR OBSTRUCTIONS TO VISIBILITY.


SDZ038>040-050-052>070-230400-
SOUTHEAST SOUTH DAKOTA

CITY           SKY/WX    TMP DP  RH WIND       PRES   REMARKS
BROOKINGS      MOCLDY    36  24  62 SE21G29   30.08F
CHAMBERLAIN    CLOUDY    43  29  57 SE14      29.95S
HURON          CLOUDY    37  27  67 SE15G25   30.01F
MADISON        FAIR      36  28  75 SE21G29   30.08S
MITCHELL       CLOUDY    41  29  62 SE25G31   30.04R
SIOUX FALLS    CLOUDY    39  27  62 SE20      30.13S
WINNER         FAIR      50  29  44 S21G28    29.93R
YANKTON        CLOUDY    43  27  52 SE18G24   30.08S
$$

MNZ071-072-080-081-089-090-097-098-230400-
SOUTHWEST MINNESOTA

CITY           SKY/WX    TMP DP  RH WIND       PRES   REMARKS
FAIRMONT       CLOUDY    36  24  62 SE16      30.24S
JACKSON        CLOUDY    34  27  75 SE15G21   30.20F WCI  24
LUVERNE        CLOUDY    36  25  64 SE14      30.15S
MARSHALL       CLOUDY    36  25  64 SE21      30.16F
MONTEVIDEO     CLOUDY    36  25  64 S18       30.18S
PIPESTONE      CLOUDY    36  21  55 S17G25    30.11F
REDWOOD FALLS  CLOUDY    36  24  62 SE17      30.20F
TRACY          CLOUDY    36  28  73 S15       30.17R
WINDOM         CLOUDY    36  25  64 SE17G24   30.19F
WORTHINGTON    CLOUDY    36  24  62 SE16      30.16F
$$

IAZ001>003-012>014-020>022-031-032-NEZ013-014-SDZ071-230400-
NORTHWEST IOWA

CITY           SKY/WX    TMP DP  RH WIND       PRES   REMARKS
CHEROKEE       CLOUDY    40  25  54 SE10G16   30.19S
DENISON        CLOUDY    39  27  60 SE9       30.17S
ESTHERVILLE    CLOUDY    35  25  66 SE17      30.21F WCI  25
LE MARS        CLOUDY    39  27  60 SE10      30.16F
ORANGE CITY    CLOUDY    37  27  65 SE10G17   30.16S
SHELDON        CLOUDY    36  28  75 SE18      30.15F
SIOUX CITY     CLOUDY    42  28  57 SE16      30.15F
SPENCER        CLOUDY    38  23  55 SE15G24   30.19F
STORM LAKE     CLOUDY    39  25  56 SE17      30.19S
$$

ABBREVIATIONS USED IN REMARKS
   TC - TEMPERATURE IN CELSIUS
  WCI - WIND CHILL INDEX
   HX - HEAT INDEX
  VSB - VISIBILITY




USA.gov is the U.S. government's official web portal to all federal, state and local government web resources and services.